Stündliche Wetter Kytaihorod

Heute, 24 Januar, Sonntag

Zeit Temperatur Niederschläge Wind Luftdruck Luftfeuchtigkeit
00:00 +3°C° 0 mm 6 m/S 754 mmHg 92%
01:00 +2°C° 0 mm 6 m/S 754 mmHg 92%
02:00 +2°C° 0 mm 5 m/S 754 mmHg 91%
03:00 +2°C° 0 mm 5 m/S 753 mmHg 90%
04:00 +2°C° 0 mm 5 m/S 753 mmHg 89%
05:00 +2°C° 0 mm 5 m/S 753 mmHg 88%
06:00 +2°C° 0 mm 5 m/S 753 mmHg 87%
07:00 +2°C° 0 mm 6 m/S 753 mmHg 87%
08:00 +2°C° 0 mm 6 m/S 753 mmHg 86%
09:00 +2°C° 0 mm 6 m/S 753 mmHg 84%
10:00 +3°C° 0 mm 7 m/S 753 mmHg 82%
11:00 +4°C° 0 mm 7 m/S 752 mmHg 80%
12:00 +4°C° 0 mm 7 m/S 752 mmHg 78%
13:00 +5°C° 0 mm 8 m/S 751 mmHg 76%
14:00 +5°C° 0 mm 8 m/S 751 mmHg 74%
15:00 +4°C° 0 mm 7 m/S 751 mmHg 75%
16:00 +4°C° 0 mm 7 m/S 751 mmHg 77%
17:00 +3°C° 0 mm 7 m/S 751 mmHg 79%
18:00 +3°C° 0.2 mm 7 m/S 751 mmHg 82%
19:00 +3°C° 0.2 mm 7 m/S 751 mmHg 84%
20:00 +3°C° 0.2 mm 7 m/S 751 mmHg 87%
21:00 +3°C° 0 mm 7 m/S 751 mmHg 89%
22:00 +3°C° 0 mm 6 m/S 750 mmHg 91%
23:00 +3°C° 0 mm 6 m/S 750 mmHg 94%

Morgen, 25 Januar, Montag

Zeit Temperatur Niederschläge Wind Luftdruck Luftfeuchtigkeit
00:00 +3°C° 0 mm 6 m/S 750 mmHg 93%
01:00 +4°C° 0 mm 6 m/S 750 mmHg 92%
02:00 +4°C° 0 mm 6 m/S 750 mmHg 92%
03:00 +4°C° 0 mm 6 m/S 750 mmHg 92%
04:00 +4°C° 0 mm 6 m/S 750 mmHg 91%
05:00 +4°C° 0 mm 6 m/S 750 mmHg 91%
06:00 +4°C° 0 mm 6 m/S 750 mmHg 91%
07:00 +4°C° 0 mm 6 m/S 750 mmHg 90%
08:00 +5°C° 0 mm 5 m/S 750 mmHg 90%
09:00 +5°C° 0 mm 6 m/S 750 mmHg 87%
10:00 +5°C° 0 mm 6 m/S 750 mmHg 84%
11:00 +7°C° 0 mm 6 m/S 750 mmHg 81%
12:00 +7°C° 0 mm 6 m/S 750 mmHg 79%
13:00 +8°C° 0 mm 6 m/S 749 mmHg 78%
14:00 +8°C° 0 mm 7 m/S 749 mmHg 77%
15:00 +8°C° 0.1 mm 7 m/S 749 mmHg 79%
16:00 +6°C° 0.1 mm 7 m/S 748 mmHg 81%
17:00 +6°C° 0.1 mm 7 m/S 748 mmHg 82%
18:00 +5°C° 0 mm 8 m/S 747 mmHg 79%
19:00 +5°C° 0 mm 8 m/S 747 mmHg 77%
20:00 +5°C° 0 mm 9 m/S 746 mmHg 74%
21:00 +5°C° 0.3 mm 9 m/S 746 mmHg 78%
22:00 +5°C° 0.3 mm 10 m/S 745 mmHg 82%
23:00 +5°C° 0.3 mm 10 m/S 744 mmHg 86%

übermorgen, 26 Januar, Dienstag

Zeit Temperatur Niederschläge Wind Luftdruck Luftfeuchtigkeit
00:00 +5°C° 1.4 mm 9 m/S 744 mmHg 87%
01:00 +5°C° 1.4 mm 9 m/S 744 mmHg 88%
02:00 +5°C° 1.4 mm 8 m/S 743 mmHg 89%
03:00 +5°C° 0.9 mm 8 m/S 743 mmHg 86%
04:00 +5°C° 0.9 mm 8 m/S 743 mmHg 83%
05:00 +4°C° 0.9 mm 8 m/S 743 mmHg 80%
06:00 +4°C° 0 mm 8 m/S 743 mmHg 77%
07:00 +2°C° 0 mm 8 m/S 744 mmHg 75%
08:00 +2°C° 0 mm 9 m/S 744 mmHg 73%
09:00 +2°C° 0 mm 9 m/S 744 mmHg 72%
10:00 +2°C° 0 mm 9 m/S 743 mmHg 71%
11:00 +2°C° 0 mm 9 m/S 743 mmHg 70%
12:00 +2°C° 0 mm 10 m/S 743 mmHg 67%
13:00 +2°C° 0 mm 10 m/S 744 mmHg 64%
14:00 +1°C° 0 mm 11 m/S 744 mmHg 60%
15:00 +1°C° 0 mm 10 m/S 745 mmHg 62%
16:00 0°C° 0 mm 10 m/S 745 mmHg 63%
17:00 -2°C° 0 mm 10 m/S 746 mmHg 64%
18:00 -1°C° 0 mm 9 m/S 747 mmHg 66%
19:00 -3°C° 0 mm 9 m/S 748 mmHg 67%
20:00 -3°C° 0 mm 9 m/S 748 mmHg 68%
21:00 -2°C° 0 mm 8 m/S 749 mmHg 67%
22:00 -2°C° 0 mm 8 m/S 749 mmHg 66%
23:00 -2°C° 0 mm 8 m/S 750 mmHg 65%

27 Januar, Mittwoch

Zeit Temperatur Niederschläge Wind Luftdruck Luftfeuchtigkeit
00:00 -2°C° 0 mm 8 m/S 750 mmHg 64%
01:00 -2°C° 0 mm 7 m/S 750 mmHg 63%
02:00 -3°C° 0 mm 7 m/S 751 mmHg 62%
03:00 -3°C° 0 mm 7 m/S 751 mmHg 62%
04:00 -3°C° 0 mm 6 m/S 751 mmHg 62%
05:00 -3°C° 0 mm 6 m/S 751 mmHg 63%
06:00 -3°C° 0 mm 6 m/S 751 mmHg 63%
07:00 -3°C° 0 mm 6 m/S 752 mmHg 64%
08:00 -4°C° 0 mm 5 m/S 752 mmHg 64%
09:00 -2°C° 0 mm 5 m/S 752 mmHg 61%
10:00 -2°C° 0 mm 6 m/S 753 mmHg 58%
11:00 -1°C° 0 mm 6 m/S 753 mmHg 56%
12:00 0°C° 0 mm 5 m/S 753 mmHg 54%
13:00 +1°C° 0 mm 5 m/S 752 mmHg 53%
14:00 +1°C° 0 mm 4 m/S 752 mmHg 52%
15:00 0°C° 0 mm 4 m/S 752 mmHg 57%
16:00 0°C° 0 mm 3 m/S 752 mmHg 61%
17:00 -1°C° 0 mm 2 m/S 753 mmHg 66%
18:00 -1°C° 0 mm 2 m/S 753 mmHg 68%
19:00 -1°C° 0 mm 2 m/S 753 mmHg 69%
20:00 -1°C° 0 mm 2 m/S 753 mmHg 71%
21:00 -2°C° 0 mm 2 m/S 753 mmHg 74%
22:00 -2°C° 0 mm 2 m/S 752 mmHg 76%
23:00 -2°C° 0 mm 2 m/S 752 mmHg 79%

28 Januar, Donnerstag

Zeit Temperatur Niederschläge Wind Luftdruck Luftfeuchtigkeit
00:00 -2°C° 0 mm 2 m/S 752 mmHg 79%
01:00 -2°C° 0 mm 2 m/S 752 mmHg 80%
02:00 -2°C° 0 mm 2 m/S 752 mmHg 80%
03:00 -2°C° 0 mm 2 m/S 751 mmHg 80%
04:00 -2°C° 0 mm 2 m/S 751 mmHg 80%
05:00 -2°C° 0 mm 2 m/S 751 mmHg 80%
06:00 -2°C° 0 mm 2 m/S 751 mmHg 80%
07:00 -2°C° 0 mm 3 m/S 751 mmHg 81%
08:00 -2°C° 0 mm 3 m/S 751 mmHg 81%
09:00 -2°C° 0 mm 3 m/S 751 mmHg 78%
10:00 -1°C° 0 mm 3 m/S 751 mmHg 76%
11:00 -2°C° 0 mm 4 m/S 751 mmHg 73%
12:00 -2°C° 0 mm 4 m/S 750 mmHg 71%
13:00 -1°C° 0 mm 4 m/S 750 mmHg 70%
14:00 -1°C° 0 mm 4 m/S 750 mmHg 69%
15:00 -1°C° 0 mm 3 m/S 750 mmHg 72%
16:00 -1°C° 0 mm 3 m/S 750 mmHg 74%
17:00 -1°C° 0 mm 3 m/S 750 mmHg 77%
18:00 -2°C° 0 mm 3 m/S 750 mmHg 78%
19:00 -2°C° 0 mm 3 m/S 750 mmHg 80%
20:00 -2°C° 0 mm 3 m/S 750 mmHg 82%

29 Januar, Freitag

Zeit Temperatur Niederschläge Wind Luftdruck Luftfeuchtigkeit
Mehr zeigen

Wir brauchen deine Erlaubnis

Meteoprog und unser Service Anbieter werden persönliche Daten aufbewahren, so wie Cookies, Geräte Bezeichnung oder ähnliche Technologien von deinem Gerät und Prozess, so wie Persönliche Daten Inhalte und Werbungen, genauso wie social Media und den Verkehr zu analysieren.

  • Aufbewahrung und/oder Zugang zu deiner Geräte Informationen.

    Cookies, Geräte Bezeichnung oder andere Informationen, können aufbewahrt oder Zugang zu deinem Gerät erhalten, für den Grund, der oben angegeben wird.

  • Personalisierte Werbung und Inhalte, Messungen, Einblick in das Publikum und Produkt Entwicklung.

    Werbungen und Inhalte können personalisiert werden, basierend auf ein Profil. Mehr Daten können besser personalisierte Werbungen und Inhalte hinzufügen. Werbung und Inhalte können gezeigt und gemessen werden. Einblicke über das Publikum, welche die Werbung gesehen haben und den Inhalt, können abgeleitet werden. So wie Daten können genutzt werden, um es zu verbessern oder die Benutzer Erfahrung zu verbessern das System und die Software.

Wenn du “Ich stimme zu” klickst, erlaubst du uns, die Cookies zu benutzen die Geräte Bezeichnung, den Web oder ähnliche Technologien zu benutzen. Deine Settings, können in deinem Gerät bei deinem Browser geändert werden.

Für den bestimmten Zweck, berechtigten Interessen beruhen darauf, mehr als auf den Inhalt. Du kannst mehr darüber in unseren Privaten und Cookie Politik lesen.